This demonstration page uses our WeatherBlox Daily Observations layout. Learn more.

Left ArrowRight Arrow

41.12389, -100.76542

Hourly Observations for March 27, 2021

Temp ( °F °C ) Dew Point ( °F °C ) Humidity (%) Winds ( mph kmh ) Pressure ( in mb ) Visibility ( mi km ) Precip ( " mm )
12:53 am 00:53 Cloudy 44 6.7 40 4.4 85 85 NNW 8 13 29.90 1013 10 16 0.00 0.00
1:16 am 01:16 Cloudy 44 6.7 40 4.4 85 85 NNW 6 9 29.93 1014 10 16 0.00 0.00
1:23 am 01:23 Cloudy 43 6.1 39 3.9 86 86 NNW 6 9 29.94 1014 10 16 0.00 0.00
1:53 am 01:53 Partly Cloudy 39 3.9 36 2.2 89 89 W 7 11 29.92 1013 10 16 0.00 0.00
2:53 am 02:53 Mostly Cloudy 37 2.8 34 1.1 89 89 WNW 6 9 29.94 1014 10 16 0.00 0.00
3:53 am 03:53 Mostly Cloudy 38 3.3 35 1.7 89 89 WNW 7 11 29.93 1014 10 16 0.00 0.00
4:00 am 04:00 Partly Cloudy 36 2.2 34 1.1 93 93 WNW 7 11 29.99 1016 10 16 0.00 0.00
4:25 am 04:25 Mostly Cloudy 37 2.8 34 1.1 89 89 NNW 3 6 29.99 1016 10 16 0.00 0.00
4:53 am 04:53 Partly Cloudy 38 3.3 35 1.7 89 89 WNW 3 6 29.95 1014 10 16 0.00 0.00
5:06 am 05:06 Mostly Cloudy 36 2.2 34 1.1 93 93 NW 5 7 30.02 1017 10 16 0.00 0.00
5:53 am 05:53 Mostly Clear 38 3.3 35 1.7 89 89 NW 9 15 29.96 1015 10 16 0.00 0.00
6:53 am 06:53 Mostly Cloudy 41 5 36 2.2 82 82 NW 10 17 29.98 1015 10 16 0.00 0.00
7:21 am 07:21 Partly Cloudy 38 3.3 34 1.1 86 86 WNW 9 15 30.03 1017 10 16 0.00 0.00
7:53 am 07:53 Sunny 35 1.7 32 0 89 89 WNW 6 9 29.99 1016 10 16 0.00 0.00
8:53 am 08:53 Mostly Sunny 41 5 36 2.2 82 82 WNW 8 13 30.01 1016 10 16 0.00 0.00
9:53 am 09:53 Mostly Sunny 45 7.2 38 3.3 77 77 NW 14 22 30.04 1017 10 16 0.00 0.00
10:23 am 10:23 Mostly Cloudy 47 8.3 37 2.8 69 69 NW 18 30 30.06 1018 10 16 0.00 0.00
10:53 am 10:53 Mostly Cloudy 49 9.4 35 1.7 59 59 NNW 21 33 30.06 1018 10 16 0.00 0.00
11:02 am 11:02 Mostly Cloudy 49 9.4 34 1.1 56 56 NNW 20 31 30.06 1018 10 16 0.00 0.00
11:53 am 11:53 Partly Cloudy 51 10.6 34 1.1 52 52 NNW 21 33 30.08 1019 10 16 0.00 0.00
12:53 pm 12:53 Partly Cloudy 52 11.1 31 -0.6 45 45 NNW 18 30 30.10 1019 10 16 0.00 0.00
1:53 pm 13:53 Mostly Sunny 53 11.7 28 -2.2 38 38 NW 21 33 30.11 1020 10 16 0.00 0.00
2:53 pm 14:53 Partly Cloudy 56 13.3 26 -3.3 32 32 WNW 21 33 30.09 1019 10 16 0.00 0.00
3:53 pm 15:53 Mostly Sunny 56 13.3 24 -4.4 29 29 NW 21 33 30.09 1019 10 16 0.00 0.00
4:53 pm 16:53 Partly Cloudy 57 13.9 19 -7.2 23 23 NW 22 35 30.09 1019 10 16 0.00 0.00
5:53 pm 17:53 Mostly Sunny 55 12.8 20 -6.7 25 25 NNW 17 28 30.09 1019 10 16 0.00 0.00
6:53 pm 18:53 Partly Cloudy 52 11.1 23 -5 32 32 N 17 28 30.13 1020 10 16 0.00 0.00
7:53 pm 19:53 Sunny 47 8.3 26 -3.3 44 44 NW 12 19 30.18 1022 10 16 0.00 0.00
8:53 pm 20:53 Clear 39 3.9 27 -2.8 62 62 N 3 6 30.22 1023 10 16 0.00 0.00
9:53 pm 21:53 Clear 37 2.8 28 -2.2 70 70 NNW 5 7 30.23 1024 10 16 0.00 0.00
10:53 pm 22:53 Clear 32 0 26 -3.3 79 79 Calm 30.25 1024 10 16 0.00 0.00
11:53 pm 23:53 Mostly Clear 32 0 27 -2.8 82 82 WNW 3 6 30.24 1024 10 16 0.00 0.00

Powered by AerisWeather